CW9148 Weather Reports


Display with metric or nautical units.
time (UTC)temp
F
wind
direction
speed
MPH
gust
MPH
rain 1hr
in
rain 24hr
in
rain mn
in
humidity
%
barometer
mb
20260906202838 70 190 0.0 0.0 0.00 0.00 0.00 34 1016.1
20260906202337 70 182 0.0 0.0 0.00 0.00 0.00 35 1016.1
20260906201815 69 282 0.0 0.0 0.00 0.00 0.00 36 1016.1
20260906201321 69 250 0.0 0.0 0.00 0.00 0.00 35 1016.1
20260906200821 69 225 0.0 0.0 0.00 0.00 0.00 36 1016.1
20260906200347 70 308 0.0 0.0 0.00 0.00 0.00 35 1016.1
20260906195820 70 234 0.0 0.0 0.00 0.00 0.00 36 1016.1
20260906195319 71 302 0.0 0.0 0.00 0.00 0.00 34 1016.1
20260906194817 71 227 0.0 0.0 0.00 0.00 0.00 35 1016.1
20260906194320 72 204 0.0 0.0 0.00 0.00 0.00 34 1016.1
20260906193825 72 204 0.0 0.0 0.00 0.00 0.00 35 1016.1
20260906193322 71 210 0.0 0.0 0.00 0.00 0.00 37 1016.1
20260906192820 71 209 0.0 0.0 0.00 0.00 0.00 36 1016.1
20260906192344 71 198 0.0 0.0 0.00 0.00 0.00 37 1016.0
20260906191814 70 182 0.0 0.0 0.00 0.00 0.00 37 1016.0
20260906191333 70 198 0.0 0.0 0.00 0.00 0.00 38 1016.0
20260906190832 70 231 0.0 0.0 0.00 0.00 0.00 39 1016.0
20260906190336 70 183 0.0 0.0 0.00 0.00 0.00 39 1016.0
20260906185834 70 183 0.0 0.0 0.00 0.00 0.00 39 1016.0
20260906185334 70 221 0.0 0.0 0.00 0.00 0.00 39 1016.0
20260906184833 69 213 0.0 0.0 0.00 0.00 0.00 40 1016.0
20260906184333 69 240 0.0 0.0 0.00 0.00 0.00 40 1016.0
20260906183858 69 210 0.0 0.0 0.00 0.00 0.00 40 1016.1
20260906183333 69 211 0.0 0.0 0.00 0.00 0.00 42 1016.1
20260906182833 69 157 0.0 0.0 0.00 0.00 0.00 41 1016.1
20260906182355 69 199 0.0 0.0 0.00 0.00 0.00 41 1016.1
20260906181832 69 231 0.0 0.0 0.00 0.00 0.00 42 1016.1
20260906181358 69 200 0.0 0.0 0.00 0.00 0.00 41 1016.1
20260906180815 68 231 0.0 0.0 0.00 0.00 0.00 42 1016.1
20260906180340 68 165 0.0 0.0 0.00 0.00 0.00 43 1016.1
20260906175838 68 214 0.0 0.0 0.00 0.00 0.00 42 1016.1
20260906175336 68 202 0.0 0.0 0.00 0.00 0.00 44 1016.1
20260906174835 67 192 0.0 0.0 0.00 0.00 0.00 44 1016.1
20260906174333 67 207 0.0 0.0 0.00 0.00 0.00 44 1016.1
20260906173829 67 176 0.0 0.0 0.00 0.00 0.00 45 1016.1
20260906173328 66 201 0.0 0.0 0.00 0.00 0.00 44 1016.1
20260906172825 66 220 0.0 0.0 0.00 0.00 0.00 45 1016.1
20260906172322 66 160 0.0 0.0 0.00 0.00 0.00 46 1016.0
20260906171820 66 188 0.0 0.0 0.00 0.00 0.00 46 1016.0
20260906171317 65 188 0.0 0.0 0.00 0.00 0.00 46 1016.0
20260906170815 65 188 0.0 0.0 0.00 0.00 0.00 46 1016.1
20260906170316 65 170 0.0 0.0 0.00 0.00 0.00 47 1016.1
20260906165820 64 198 0.0 0.0 0.00 0.00 0.00 51 1016.1
20260906165319 64 180 0.0 0.0 0.00 0.00 0.00 50 1016.1
20260906164815 64 173 0.0 0.0 0.00 0.00 0.00 51 1016.1
20260906164314 63 189 0.0 0.0 0.00 0.00 0.00 52 1016.1
20260906163831 63 162 0.0 0.0 0.00 0.00 0.00 52 1016.1
20260906163353 63 159 0.0 0.0 0.00 0.00 0.00 52 1016.1
20260906162835 62 170 0.0 0.0 0.00 0.00 0.00 54 1016.1
20260906162333 62 197 0.0 0.0 0.00 0.00 0.00 54 1016.1
20260906161828 62 171 0.0 0.0 0.00 0.00 0.00 54 1016.1
20260906161333 61 152 0.0 0.0 0.00 0.00 0.00 54 1016.1
20260906160831 61 171 0.0 0.0 0.00 0.00 0.00 55 1016.1
20260906160330 61 161 0.0 0.0 0.00 0.00 0.00 57 1016.1
20260906155827 60 138 0.0 0.0 0.00 0.00 0.00 57 1016.1
20260906155320 60 161 0.0 0.0 0.00 0.00 0.00 57 1016.3
20260906154823 60 177 0.0 0.0 0.00 0.00 0.00 58 1016.3
20260906154321 59 148 0.0 0.0 0.00 0.00 0.00 58 1016.3
20260906153817 59 163 0.0 0.0 0.00 0.00 0.00 59 1016.1
20260906153322 59 151 0.0 0.0 0.00 0.00 0.00 60 1016.1
20260906152847 59 155 0.0 0.0 0.00 0.00 0.00 60 1016.1
20260906152323 58 128 0.0 0.0 0.00 0.00 0.00 61 1016.1
20260906151823 58 155 0.0 0.0 0.00 0.00 0.00 61 1016.1
20260906151320 58 151 0.0 0.0 0.00 0.00 0.00 61 1016.1
20260906150820 58 152 0.0 0.0 0.00 0.00 0.00 62 1016.1
20260906150341 57 138 0.0 0.0 0.00 0.00 0.00 62 1016.1
20260906145839 57 145 0.0 0.0 0.00 0.00 0.00 62 1016.1
20260906145338 57 163 0.0 0.0 0.00 0.00 0.00 62 1016.0
20260906144816 57 128 0.0 0.0 0.00 0.00 0.00 62 1016.0
20260906144318 57 128 0.0 0.0 0.00 0.00 0.00 63 1016.0
20260906143817 57 124 0.0 0.0 0.00 0.00 0.00 63 1015.8
20260906143317 57 124 0.0 0.0 0.00 0.00 0.00 62 1015.8
20260906142815 56 124 0.0 0.0 0.00 0.00 0.00 62 1015.8
20260906142341 56 124 0.0 0.0 0.00 0.00 0.00 62 1015.6
20260906141841 56 124 0.0 0.0 0.00 0.00 0.00 62 1015.6
20260906141341 56 124 0.0 0.0 0.00 0.00 0.00 62 1015.6
20260906140838 56 123 0.0 0.0 0.00 0.00 0.00 62 1015.5
20260906140336 56 123 0.0 0.0 0.00 0.00 0.00 61 1015.5
20260906135836 57 123 0.0 0.0 0.00 0.00 0.00 61 1015.5
20260906135336 57 123 0.0 0.0 0.00 0.00 0.00 61 1015.4
20260906134832 57 123 0.0 0.0 0.00 0.00 0.00 60 1015.4
20260906134332 57 123 0.0 0.0 0.00 0.00 0.00 60 1015.4
20260906133829 57 123 0.0 0.0 0.00 0.00 0.00 60 1015.4
20260906133328 57 123 0.0 0.0 0.00 0.00 0.00 59 1015.4
20260906132854 57 123 0.0 0.0 0.00 0.00 0.00 59 1015.4
20260906132332 57 123 0.0 0.0 0.00 0.00 0.00 59 1015.3
20260906131831 57 124 0.0 0.0 0.00 0.00 0.00 59 1015.3
20260906131332 57 124 0.0 0.0 0.00 0.00 0.00 59 1015.3
20260906130832 57 124 0.0 0.0 0.00 0.00 0.00 59 1015.1
20260906130331 57 123 0.0 0.0 0.00 0.00 0.00 59 1015.1
20260906125831 57 124 0.0 0.0 0.00 0.00 0.00 59 1015.1
20260906125331 57 124 0.0 0.0 0.00 0.00 0.00 59 1015.0
20260906124854 57 124 0.0 0.0 0.00 0.00 0.00 60 1015.0
20260906124329 57 124 0.0 0.0 0.00 0.00 0.00 60 1015.0
20260906123827 57 124 0.0 0.0 0.00 0.00 0.00 60 1015.0
20260906123328 57 123 0.0 0.0 0.00 0.00 0.00 60 1015.0
20260906122829 57 118 0.0 0.0 0.00 0.00 0.00 60 1015.0
20260906122326 57 115 0.0 0.0 0.00 0.00 0.00 60 1015.0
20260906121848 57 113 0.0 0.0 0.00 0.00 0.00 60 1015.0
20260906121327 57 113 0.0 0.0 0.00 0.00 0.00 60 1015.0
20260906120826 57 113 0.0 0.0 0.00 0.00 0.00 61 1015.1
20260906120324 57 113 0.0 0.0 0.00 0.00 0.00 61 1015.1
20260906115824 57 113 0.0 0.0 0.00 0.00 0.00 61 1015.1
20260906115323 57 113 0.0 0.0 0.00 0.00 0.00 61 1015.2
20260906114823 57 82 0.0 0.0 0.00 0.00 0.00 61 1015.2
20260906114322 57 82 0.0 0.0 0.00 0.00 0.00 61 1015.2
20260906113821 57 82 0.0 0.0 0.00 0.00 0.00 61 1015.1
20260906113317 57 82 0.0 0.0 0.00 0.00 0.00 61 1015.1
20260906112825 57 82 0.0 0.0 0.00 0.00 0.00 61 1015.1
20260906112324 57 82 0.0 0.0 0.00 0.00 0.00 61 1015.1
20260906111816 57 82 0.0 0.0 0.00 0.00 0.00 61 1015.1
20260906111340 57 82 0.0 0.0 0.00 0.00 0.00 61 1015.1
20260906110847 57 82 0.0 0.0 0.00 0.00 0.00 62 1015.1
20260906110325 57 82 0.0 0.0 0.00 0.00 0.00 62 1015.1
20260906105822 57 82 0.0 0.0 0.00 0.00 0.00 62 1015.1
20260906105320 57 82 0.0 0.0 0.00 0.00 0.00 62 1015.2
20260906104820 57 82 0.0 0.0 0.00 0.00 0.00 62 1015.2
20260906104315 57 82 0.0 0.0 0.00 0.00 0.00 62 1015.2
20260906103821 57 82 0.0 0.0 0.00 0.00 0.00 62 1015.1
20260906103320 57 82 0.0 0.0 0.00 0.00 0.00 62 1015.1
20260906102814 57 82 0.0 0.0 0.00 0.00 0.00 62 1015.1
20260906102340 57 82 0.0 0.0 0.00 0.00 0.00 62 1015.2
20260906101840 57 82 0.0 0.0 0.00 0.00 0.00 62 1015.2
20260906101317 57 82 0.0 0.0 0.00 0.00 0.00 62 1015.2
20260906100841 57 82 0.0 0.0 0.00 0.00 0.00 62 1015.3
20260906100320 57 82 0.0 0.0 0.00 0.00 0.00 62 1015.3
20260906095819 57 82 0.0 0.0 0.00 0.00 0.00 62 1015.3
20260906095319 57 82 0.0 0.0 0.00 0.00 0.00 62 1015.3
20260906094819 57 82 0.0 0.0 0.00 0.00 0.00 62 1015.3
20260906094318 57 82 0.0 0.0 0.00 0.00 0.00 62 1015.3
20260906093818 57 82 0.0 0.0 0.00 0.00 0.00 62 1015.4
20260906093341 57 82 0.0 0.0 0.00 0.00 0.00 62 1015.4
20260906092819 57 82 0.0 0.0 0.00 0.00 0.00 62 1015.4
20260906092318 57 82 0.0 0.0 0.00 0.00 0.00 62 1015.4
20260906091843 57 82 0.0 0.0 0.00 0.00 0.00 62 1015.4
20260906091350 57 82 0.0 0.0 0.00 0.00 0.00 61 1015.4
20260906090826 57 82 0.0 0.0 0.00 0.00 0.00 61 1015.5
20260906090326 57 82 0.0 0.0 0.00 0.00 0.00 61 1015.5
20260906085829 57 82 0.0 0.0 0.00 0.00 0.00 61 1015.5
20260906085329 57 82 0.0 0.0 0.00 0.00 0.00 61 1015.5
20260906084826 57 82 0.0 0.0 0.00 0.00 0.00 61 1015.5
20260906084323 58 82 0.0 0.0 0.00 0.00 0.00 61 1015.5
20260906083818 58 82 0.0 0.0 0.00 0.00 0.00 60 1015.6
20260906083317 58 77 0.0 0.0 0.00 0.00 0.00 60 1015.6
20260906082841 58 75 0.0 0.0 0.00 0.00 0.00 60 1015.6
20260906082338 58 75 0.0 0.0 0.00 0.00 0.00 60 1015.6
20260906081838 58 75 0.0 0.0 0.00 0.00 0.00 59 1015.6
20260906081338 58 75 0.0 0.0 0.00 0.00 0.00 59 1015.6
20260906080836 58 75 0.0 0.0 0.00 0.00 0.00 59 1015.6
20260906080315 58 75 0.0 0.0 0.00 0.00 0.00 59 1015.6
20260906075837 58 75 0.0 0.0 0.00 0.00 0.00 59 1015.6
20260906075334 58 75 0.0 0.0 0.00 0.00 0.00 59 1015.5
20260906074835 58 75 0.0 0.0 0.00 0.00 0.00 58 1015.5
20260906074334 58 75 0.0 0.0 0.00 0.00 0.00 58 1015.5
20260906073836 58 75 0.0 0.0 0.00 0.00 0.00 58 1015.6
20260906073315 58 75 0.0 0.0 0.00 0.00 0.00 58 1015.6
20260906072814 58 75 0.0 0.0 0.00 0.00 0.00 58 1015.6
20260906072340 58 75 0.0 0.0 0.00 0.00 0.00 58 1015.6
20260906071840 58 75 0.0 0.0 0.00 0.00 0.00 58 1015.6
20260906071317 58 75 0.0 0.0 0.00 0.00 0.00 58 1015.6
20260906070816 58 75 0.0 0.0 0.00 0.00 0.00 57 1015.6
20260906070316 58 75 0.0 0.0 0.00 0.00 0.00 57 1015.6
20260906065832 58 75 0.0 0.0 0.00 0.00 0.00 57 1015.6
20260906065331 58 75 0.0 0.0 0.00 0.00 0.00 57 1015.8
20260906064828 58 75 0.0 0.0 0.00 0.00 0.00 57 1015.8
20260906064327 58 75 0.0 0.0 0.00 0.00 0.00 57 1015.8
20260906063825 58 75 0.0 0.0 0.00 0.00 0.00 57 1015.7
20260906063322 58 75 0.0 0.0 0.00 0.00 0.00 57 1015.7
20260906062848 58 67 0.0 0.0 0.00 0.00 0.00 57 1015.7
20260906062324 58 67 0.0 0.0 0.00 0.00 0.00 57 1015.9
20260906061824 58 67 0.0 0.0 0.00 0.00 0.00 57 1015.9
20260906061323 58 67 0.0 0.0 0.00 0.00 0.00 57 1015.9
20260906060845 58 67 0.0 0.0 0.00 0.00 0.00 57 1015.9
20260906060323 58 67 0.0 0.0 0.00 0.00 0.00 57 1015.9
20260906055823 58 67 0.0 0.0 0.00 0.00 0.00 56 1015.9
20260906055318 58 67 0.0 0.0 0.00 0.00 0.00 56 1016.0
20260906054822 58 67 0.0 0.0 0.00 0.00 0.00 56 1016.0
20260906054322 58 67 0.0 0.0 0.00 0.00 0.00 56 1016.0
20260906053821 58 67 0.0 0.0 0.00 0.00 0.00 55 1016.1
20260906053321 58 67 0.0 0.0 0.00 0.00 0.00 55 1016.1
20260906052819 58 67 0.0 0.0 0.00 0.00 0.00 55 1016.1
20260906052317 58 65 0.0 0.0 0.00 0.00 0.00 54 1016.1
20260906051817 58 65 0.0 0.0 0.00 0.00 0.00 54 1016.1
20260906051340 58 65 0.0 0.0 0.00 0.00 0.00 54 1016.1
20260906050819 59 64 0.0 0.0 0.00 0.00 0.00 54 1016.2
20260906050318 59 69 0.0 0.0 0.00 0.00 0.00 54 1016.2
20260906045815 59 63 0.0 0.0 0.00 0.00 0.00 53 1016.2
20260906045341 59 48 0.0 0.0 0.00 0.00 0.00 53 1016.2
20260906044819 59 58 0.0 0.0 0.00 0.00 0.00 53 1016.2
20260906044320 59 47 0.0 0.0 0.00 0.00 0.00 53 1016.2
20260906043847 59 46 0.0 0.0 0.00 0.00 0.00 53 1016.1
20260906043351 59 46 0.0 0.0 0.00 0.00 0.00 52 1016.1
20260906042829 59 40 0.0 0.0 0.00 0.00 0.00 52 1016.1
20260906042325 59 32 0.0 0.0 0.00 0.00 0.00 52 1016.1
20260906041826 59 32 0.0 0.0 0.00 0.00 0.00 52 1016.1
20260906041351 59 31 0.0 0.0 0.00 0.00 0.00 52 1016.1
20260906040829 59 24 0.0 0.0 0.00 0.00 0.00 52 1016.1
20260906040355 59 24 0.0 0.0 0.00 0.00 0.00 52 1016.1
20260906035859 60 24 0.0 0.0 0.00 0.00 0.00 52 1016.1
20260906035318 60 6 0.0 0.0 0.00 0.00 0.00 52 1016.1
20260906034819 60 5 0.0 0.0 0.00 0.00 0.00 52 1016.1
20260906034319 60 5 0.0 0.0 0.00 0.00 0.00 52 1016.1
20260906033815 60 5 0.0 0.0 0.00 0.00 0.00 52 1016.0
20260906033314 60 5 0.0 0.0 0.00 0.00 0.00 52 1016.0
20260906032837 60 3 0.0 0.0 0.00 0.00 0.00 52 1016.0
20260906032318 60 2 0.0 0.0 0.00 0.00 0.00 51 1016.0
20260906031818 60 354 0.0 0.0 0.00 0.00 0.00 51 1016.0
20260906031319 60 344 0.0 0.0 0.00 0.00 0.00 51 1016.0
20260906030817 60 344 0.0 0.0 0.00 0.00 0.00 51 1015.8
20260906030316 61 343 0.0 0.0 0.00 0.00 0.00 51 1015.8
20260906025816 61 343 0.0 0.0 0.00 0.00 0.00 50 1015.8
20260906025341 61 341 0.0 0.0 0.00 0.00 0.00 50 1015.7
20260906024836 61 327 0.0 0.0 0.00 0.00 0.00 49 1015.7
20260906024315 61 331 0.0 0.0 0.00 0.00 0.00 49 1015.7
20260906023841 62 341 0.0 0.0 0.00 0.00 0.00 48 1015.9
20260906023341 62 334 0.0 0.0 0.00 0.00 0.00 48 1015.9
20260906022820 62 327 0.0 0.0 0.00 0.00 0.00 49 1015.9
20260906022320 62 327 0.0 0.0 0.00 0.00 0.00 48 1015.9
20260906021819 63 318 0.0 0.0 0.00 0.00 0.00 47 1015.9
20260906021319 63 307 0.0 0.0 0.00 0.00 0.00 47 1015.9
20260906020820 63 319 0.0 0.0 0.00 0.00 0.00 47 1015.9
20260906020327 63 309 0.0 0.0 0.00 0.00 0.00 47 1015.9
20260906015826 63 313 0.0 0.0 0.00 0.00 0.00 47 1015.9
20260906015331 64 302 0.0 0.0 0.00 0.00 0.00 47 1016.0
20260906014831 64 295 0.0 0.0 0.00 0.00 0.00 46 1016.0
20260906014327 64 313 0.0 0.0 0.00 0.00 0.00 46 1016.0
20260906013829 65 315 0.0 0.0 0.00 0.00 0.00 46 1016.0
20260906013354 65 302 0.0 0.0 0.00 0.00 0.00 45 1016.0
20260906012859 65 304 0.0 0.0 0.00 0.00 0.00 44 1016.0
20260906012337 66 293 0.0 0.0 0.00 0.00 0.00 44 1016.0
20260906011900 66 311 0.0 0.0 0.00 0.00 0.00 44 1016.0
20260906011339 66 311 0.0 0.0 0.00 0.00 0.00 44 1016.0
20260906010835 66 308 0.0 0.0 0.00 0.00 0.00 43 1015.8
20260906010330 66 290 0.0 0.0 0.00 0.00 0.00 43 1015.8
20260906005824 66 299 0.0 0.0 0.00 0.00 0.00 43 1015.8
20260906005323 66 306 0.0 0.0 0.00 0.00 0.00 43 1015.8
20260906004820 66 306 0.0 0.0 0.00 0.00 0.00 43 1015.8
20260906004320 66 321 0.0 0.0 0.00 0.00 0.00 43 1015.8
20260906003820 67 295 0.0 0.0 0.00 0.00 0.00 43 1015.8
20260906003320 67 294 0.0 0.0 0.00 0.00 0.00 42 1015.8
20260906002821 67 308 0.0 0.0 0.00 0.00 0.00 43 1015.8
20260906002319 67 307 0.0 0.0 0.00 0.00 0.00 43 1015.8
20260906001819 67 298 0.0 0.0 0.00 0.00 0.00 43 1015.8
20260906001319 67 303 0.0 0.0 0.00 0.00 0.00 43 1015.8
20260906000817 68 308 0.0 0.0 0.00 0.00 0.00 42 1015.9
20260906000323 67 212 0.0 0.0 0.00 0.00 0.00 43 1015.9
20260905235819 67 292 0.0 0.0 0.00 0.00 0.00 43 1015.9
20260905235343 67 240 0.0 0.0 0.00 0.00 0.00 43 1015.9
20260905234822 67 303 0.0 0.0 0.00 0.00 0.00 43 1015.9
20260905234322 68 312 0.0 0.0 0.00 0.00 0.00 42 1015.9
20260905233821 68 273 0.0 0.0 0.00 0.00 0.00 42 1015.9
20260905233345 68 270 0.0 0.0 0.00 0.00 0.00 41 1015.9
20260905232825 68 317 0.0 0.0 0.00 0.00 0.00 41 1015.9
20260905232325 68 290 0.0 0.0 0.00 0.00 0.00 41 1016.0
20260905231821 68 300 0.0 0.0 0.00 0.00 0.00 41 1016.0
20260905231321 68 239 0.0 0.0 0.00 0.00 0.00 40 1016.0
20260905230821 68 224 0.0 0.0 0.00 0.00 0.00 40 1016.1
20260905230341 68 248 0.0 0.0 0.00 0.00 0.00 40 1016.1
20260905225819 68 223 0.0 0.0 0.00 0.00 0.00 40 1016.1
20260905225317 68 313 0.0 0.0 0.00 0.00 0.00 40 1016.1
20260905224814 68 246 0.0 0.0 0.00 0.00 0.00 39 1016.1
20260905224337 68 223 0.0 0.0 0.00 0.00 0.00 39 1016.1
20260905223901 69 315 0.0 0.0 0.00 0.00 0.00 38 1016.2
20260905223340 68 211 0.0 0.0 0.00 0.00 0.00 39 1016.2
20260905222819 68 314 0.0 0.0 0.00 0.00 0.00 38 1016.2
20260905222319 68 246 0.0 0.0 0.00 0.00 0.00 39 1016.2
20260905221814 68 315 0.0 0.0 0.00 0.00 0.00 38 1016.2
20260905221340 68 290 0.0 0.0 0.00 0.00 0.00 38 1016.2
20260905220839 68 301 0.0 0.0 0.00 0.00 0.00 38 1016.3
20260905220318 67 324 0.0 0.0 0.00 0.00 0.00 39 1016.3
20260905215817 67 305 0.0 0.0 0.00 0.00 0.00 39 1016.3
20260905215317 66 272 0.0 0.0 0.00 0.00 0.00 40 1016.3
20260905214815 67 235 0.0 0.0 0.00 0.00 0.00 39 1016.3
20260905214323 67 275 0.0 0.0 0.00 0.00 0.00 40 1016.3
20260905213822 67 223 0.0 0.0 0.00 0.00 0.00 39 1016.1
20260905213319 68 275 0.0 0.0 0.00 0.00 0.00 38 1016.1
20260905212819 67 246 0.0 0.0 0.00 0.00 0.00 38 1016.1
20260905212316 67 316 0.0 0.0 0.00 0.00 0.00 39 1016.1
20260905211838 67 223 0.0 0.0 0.00 0.00 0.00 39 1016.1
20260905211338 67 277 0.0 0.0 0.00 0.00 0.00 38 1016.1
20260905210838 68 194 0.0 0.0 0.00 0.00 0.00 40 1016.1
20260905210337 68 285 0.0 0.0 0.00 0.00 0.00 38 1016.1
20260905205836 68 251 0.0 0.0 0.00 0.00 0.00 38 1016.1
20260905205336 67 206 0.0 0.0 0.00 0.00 0.00 40 1016.2
20260905204814 66 270 0.0 0.0 0.00 0.00 0.00 40 1016.2
20260905204339 66 270 0.0 0.0 0.00 0.00 0.00 40 1016.2
20260905203840 67 304 0.0 0.0 0.00 0.00 0.00 38 1016.1